Location: Ferques
(50.8300°N, 1.7599°E)
Time: 20:05:55
(UTC+00:00)

BlueWalker 3 - Pass Details

Date: 19 May 2025
Orbit: 460 x 472 km, 53.2° (Epoch: 23 June)

Event Time Altitude Azimuth Distance (km) Brightness Sun altitude
Rises 21:02:42 0° 290° (WNW) 2,495 6.6 -10.3°
Reaches altitude 10° 21:04:52 10° 287° (WNW) 1,619 5.4 -10.5°
Maximum altitude 21:08:27 59° 208° (SSW) 545 1.9 -10.9°
Enters shadow 21:11:06 17° 132° (SE) 1,252 3.3 -11.1°
